Wind_Speed
16 15 15 14 17 15 10 8 7 7 6 6 5 4 4 4 3 3 2 3 3 3 3 3 3 3 4 5 7 8 8 8 7 7 6 6 7 8 8 7 7 6 6 6 6 5 5 4 4
15 14 15 16 17 13 9 8 8 7 7 6 5 5 4 4 4 3 3 2 3 3 3 2 3 3 4 4 5 6 7 7 6 6 6 6 7 7 7 7 6 6 5 5 5 5 5 4 3
15 14 16 16 14 10 8 9 8 7 7 6 6 6 5 5 4 3 2 2 2 2 2 2 3 3 4 4 5 6 7 7 6 6 6 5 6 7 6 6 6 6 5 5 5 5 4 3 2
15 17 17 15 10 8 8 9 9 8 7 6 6 6 6 6 5 3 3 3 3 3 3 3 3 4 4 5 5 5 6 6 6 6 5 5 6 6 6 5 5 6 5 5 4 4 3 2 2
17 18 16 12 9 8 9 9 9 9 8 7 7 7 6 6 5 4 4 4 4 4 4 4 4 4 5 5 5 5 5 5 6 5 4 4 5 6 6 5 5 5 4 4 4 3 2 2 1
17 16 12 10 9 9 9 9 9 8 9 9 8 7 7 6 6 6 6 5 5 5 5 5 4 5 5 5 5 5 5 5 5 5 4 4 5 5 5 4 4 4 3 3 3 3 2 1 1
16 15 11 10 9 9 9 9 9 9 9 9 9 8 8 8 8 7 7 6 6 5 5 5 5 5 5 5 5 5 5 5 5 4 4 4 4 3 3 4 4 3 3 2 2 1 1 1 1
15 15 12 10 10 10 10 10 10 10 10 10 9 9 9 8 8 7 6 6 7 6 6 6 6 6 6 6 6 6 5 5 5 4 4 4 4 3 3 3 3 3 3 2 1 1 1 2 2
15 14 11 8 8 9 9 10 11 11 11 10 10 9 9 9 8 8 8 8 8 8 8 7 8 7 7 7 7 6 6 6 6 5 4 4 4 3 3 3 3 3 2 1 1 1 2 2 3
12 10 8 7 7 9 10 11 11 11 11 11 10 10 10 9 9 9 9 9 9 10 9 10 9 8 8 8 7 7 6 6 6 5 5 4 3 2 2 3 2 2 2 1 1 1 2 3 4
8 8 7 8 8 9 10 10 11 12 12 11 10 10 10 9 9 9 10 10 10 10 10 10 10 9 9 9 8 7 7 6 5 5 4 3 2 2 2 2 1 1 2 2 2 2 2 2 3
8 8 8 9 10 10 10 10 11 11 12 11 11 11 11 10 10 10 10 11 11 10 11 11 10 9 9 8 8 7 7 6 5 4 4 3 3 2 2 2 1 2 2 2 2 2 2 2 3
9 9 9 9 10 10 10 11 11 12 11 11 11 11 11 11 11 11 11 11 11 10 10 10 10 9 8 8 7 6 6 6 5 4 2 2 2 2 2 2 2 2 2 3 3 3 3 3 4
7 8 8 9 10 10 11 11 12 12 12 12 11 12 12 11 11 11 11 11 11 10 10 9 9 9 8 7 6 5 5 5 4 3 2 2 2 2 2 2 2 3 3 3 3 4 3 3 4
5 8 10 9 9 10 11 12 11 11 12 12 12 12 12 12 11 11 11 11 11 10 10 9 8 8 8 7 6 5 4 4 4 4 3 3 3 3 3 3 4 4 4 4 4 4 4 4 4
5 8 8 8 8 9 10 11 11 11 11 12 12 12 12 12 11 11 11 11 10 10 9 8 8 7 7 7 6 6 5 4 4 5 4 4 4 4 4 4 4 4 5 5 5 4 4 4 4
4 5 6 6 6 8 10 10 11 11 11 11 11 12 12 12 11 11 11 10 10 9 9 8 7 6 6 6 6 6 6 5 4 5 5 5 5 5 5 5 4 5 5 5 6 6 6 5 5
2 2 4 4 5 5 7 8 10 11 11 11 10 11 11 11 11 10 10 10 9 9 9 8 7 7 6 6 6 6 7 6 5 5 5 4 4 4 5 5 5 5 5 6 6 6 6 6 6
3 1 0 3 4 4 5 6 8 10 11 11 11 10 10 10 10 10 9 9 8 8 8 8 7 7 6 7 7 7 7 7 6 6 6 4 4 4 5 5 5 5 5 6 6 6 6 6 6
4 4 3 2 4 2 2 4 7 9 10 10 10 10 10 9 10 9 9 8 8 7 8 7 7 7 7 7 7 7 6 6 6 6 6 6 5 5 4 5 5 5 5 6 6 6 6 7 7
6 6 4 4 5 3 4 3 4 7 8 9 9 9 9 9 9 8 8 8 7 7 7 7 7 7 7 7 7 7 6 5 5 6 6 6 5 4 5 5 5 5 5 6 6 7 7 7 8
8 8 6 5 5 5 6 6 4 6 7 8 8 8 8 8 8 7 7 6 6 6 6 6 6 6 6 6 6 6 6 6 6 6 5 5 4 4 4 5 5 5 5 6 6 7 7 8 8
10 9 8 6 6 4 4 7 4 5 6 7 7 8 8 8 8 8 6 5 5 5 5 6 6 6 6 6 6 5 6 6 6 6 5 5 4 4 4 4 4 5 6 6 7 7 8 8 8
12 9 7 6 5 5 5 6 6 5 6 7 6 7 7 7 7 7 7 6 6 6 5 5 6 5 6 5 5 5 5 5 5 5 5 5 4 4 4 4 4 5 5 6 7 7 8 9 9
13 11 8 8 7 6 5 7 7 7 8 8 8 8 8 8 8 7 7 7 6 6 5 5 5 4 5 5 5 5 5 5 5 5 5 5 5 4 4 3 4 5 5 6 7 8 8 9 9
15 14 12 10 9 8 7 9 9 9 9 8 8 8 9 9 9 8 7 6 6 6 6 6 5 4 5 6 5 5 6 5 5 5 5 6 6 5 5 4 4 5 6 6 7 8 9 9 9
17 16 13 12 12 11 9 10 11 10 10 9 9 8 9 9 9 9 8 7 7 7 7 6 6 6 6 6 6 6 6 6 6 6 6 7 7 6 6 5 5 6 6 7 8 9 9 10 10
20 18 15 16 15 14 10 10 12 12 12 12 11 10 9 9 9 9 8 6 7 7 7 7 7 7 7 7 7 7 7 7 7 7 7 8 7 7 6 6 7 7 8 8 9 9 10 11 12
21 21 20 18 16 14 12 11 12 14 13 13 12 11 11 10 9 10 9 9 9 8 8 7 7 7 7 8 8 8 8 8 8 8 8 8 8 8 8 8 8 9 10 10 10 10 11 12 13
22 22 21 19 17 16 14 13 13 14 14 14 14 13 13 12 11 11 10 10 10 9 9 8 9 9 8 8 8 8 8 9 9 9 9 10 9 9 10 10 10 10 11 11 11 12 12 13 14
Wind_Direction
76 72 70 66 61 57 48 39 34 46 45 44 44 57 68 71 84 83 89 89 104 132 137 122 120 133 142 146 151 149 149 150 145 141 138 143 148 149 149 150 145 142 142 142 140 132 124 118 117
77 74 69 60 56 52 39 37 42 40 42 45 49 62 67 65 76 89 95 95 110 129 139 134 137 133 134 140 145 152 150 152 148 138 135 137 146 150 151 149 149 146 147 145 142 135 130 129 132
80 75 69 62 57 44 37 37 40 37 40 45 52 58 58 63 70 78 89 101 114 120 145 152 151 139 140 148 149 151 151 148 145 140 136 136 144 147 148 150 151 150 152 146 144 140 138 141 138
80 69 66 64 55 43 34 34 38 35 38 48 53 56 53 55 60 65 79 84 85 88 119 124 145 150 147 149 147 150 150 145 141 139 138 140 144 147 151 152 150 148 150 145 139 140 149 163 148
79 69 61 57 49 38 35 35 37 38 40 50 53 54 55 50 53 67 77 83 77 79 94 108 114 139 142 146 145 145 141 142 137 138 137 136 145 148 150 153 155 152 149 142 141 148 156 165 153
73 70 58 45 44 38 34 35 38 38 37 45 53 56 60 58 60 70 70 70 72 79 83 99 111 119 126 134 145 144 139 139 138 139 140 142 148 148 152 156 157 154 149 146 145 155 164 183 194
72 75 61 41 40 40 36 34 36 35 36 43 48 53 56 59 63 67 65 65 71 79 83 89 103 120 119 124 129 131 136 141 142 145 147 154 149 146 143 150 161 165 159 153 153 175 190 228 248
67 67 57 40 38 37 38 40 39 39 38 43 45 49 51 54 58 61 61 63 70 76 78 93 98 109 114 115 122 129 130 138 141 143 142 150 146 140 155 150 154 162 162 171 207 255 266 266 264
65 66 58 45 40 41 43 39 41 43 44 48 48 51 50 54 58 57 60 64 72 77 76 82 92 101 113 116 122 130 132 133 133 138 139 144 142 140 150 137 124 133 142 163 280 287 290 287 278
59 62 53 48 47 47 48 43 41 43 44 45 47 48 51 56 61 59 62 68 73 75 76 78 90 95 102 110 121 126 129 126 127 128 125 132 132 129 126 117 101 108 100 60 358 330 314 304 294
67 65 57 57 54 52 50 46 42 40 42 43 46 46 50 53 57 60 63 66 72 75 78 82 88 95 99 100 106 114 120 126 124 127 127 126 114 111 98 88 89 75 38 26 19 2 340 328 314
70 61 58 57 53 51 48 44 42 41 41 44 47 48 51 51 57 61 63 68 74 74 76 80 84 92 97 97 102 106 114 120 122 124 128 120 108 97 81 88 76 32 17 12 360 345 353 4 21
65 61 58 59 53 50 52 46 43 41 41 45 47 46 50 52 58 62 66 68 73 75 73 76 78 85 93 95 98 99 104 107 109 110 116 115 101 88 80 75 64 31 10 11 6 357 20 33 43
71 72 60 55 51 46 48 45 41 40 41 45 48 51 53 53 55 60 61 63 66 69 70 72 74 78 83 90 91 87 92 97 91 76 66 71 92 83 62 54 53 31 30 28 22 20 31 39 44
64 67 59 46 41 42 43 44 40 39 40 44 49 53 53 53 55 55 57 59 61 63 67 68 71 71 71 73 76 76 72 67 54 42 57 65 63 65 60 58 52 46 43 36 31 27 35 49 48
58 53 51 43 33 36 37 34 35 35 38 46 51 52 50 49 53 55 56 58 59 60 60 62 63 66 66 65 65 62 51 50 46 48 53 51 53 61 62 59 54 47 41 36 30 28 26 30 39
69 57 47 31 22 29 31 23 33 30 30 39 46 48 47 46 51 53 54 54 55 57 56 56 58 59 60 59 57 51 46 44 47 48 52 54 58 64 62 58 57 50 39 35 35 29 23 22 26
129 73 49 6 3 18 28 16 23 25 22 27 36 38 39 41 46 48 49 49 50 51 51 53 56 55 54 52 52 48 45 48 52 55 54 52 49 53 55 52 50 39 38 35 29 26 26 26 23
185 186 103 329 337 6 17 11 16 15 17 19 25 28 30 34 38 42 42 43 47 49 49 49 47 46 44 45 48 47 47 53 56 52 48 45 44 45 50 49 47 37 34 30 28 28 24 23 23
208 229 220 282 317 338 353 1 1 8 9 12 16 19 22 31 33 35 39 42 45 49 50 44 39 37 41 46 46 46 45 50 50 46 44 42 41 41 50 51 48 36 30 27 24 23 20 18 16
225 237 216 240 270 278 313 324 326 355 2 4 8 7 14 22 27 32 35 39 42 44 43 38 35 36 37 34 35 32 30 33 35 38 43 42 41 39 48 51 46 38 25 23 22 22 19 14 12
230 236 233 234 274 301 301 294 308 337 349 357 357 359 3 7 11 20 22 27 33 33 30 29 27 29 29 26 24 22 26 29 31 33 36 39 41 38 42 49 46 38 32 29 24 20 17 13 11
227 233 238 233 245 262 286 298 309 324 328 337 344 346 346 352 354 0 6 7 10 12 12 13 13 17 19 21 20 19 18 21 26 26 22 26 29 28 28 36 33 29 22 19 19 16 12 9 8
226 225 241 253 255 253 259 282 292 291 314 319 330 332 329 333 338 338 344 345 347 349 356 1 3 5 4 4 9 11 9 10 13 13 9 12 21 18 17 24 21 14 9 7 10 8 5 4 3
225 222 234 246 257 258 258 268 270 282 301 303 312 315 317 323 330 330 330 332 332 336 340 343 342 345 351 352 350 350 354 358 359 359 1 2 4 3 5 10 8 2 358 355 357 357 357 359 2
223 221 223 236 249 263 252 249 264 278 288 297 301 301 306 314 321 322 322 319 319 325 327 322 326 330 336 336 336 336 336 340 340 343 345 348 349 347 341 343 347 345 347 347 348 349 346 349 352
222 223 227 244 254 256 248 252 263 270 278 283 287 290 295 304 310 310 312 314 313 313 315 313 314 318 321 320 317 319 320 322 323 324 327 330 336 337 332 332 335 333 336 340 342 337 336 337 339
225 221 227 237 244 246 241 246 257 272 275 280 282 282 286 289 297 300 295 304 311 314 316 310 310 312 310 309 311 311 312 314 315 317 321 322 325 327 324 324 328 325 324 325 328 330 330 331 332
227 225 224 230 236 246 248 247 257 269 275 279 282 281 282 284 286 292 298 302 300 306 312 315 311 309 308 308 307 308 309 312 312 310 311 316 316 316 314 314 318 320 318 316 320 322 323 323 325
231 231 230 234 239 240 244 249 255 260 272 275 275 273 276 279 281 284 288 293 293 297 303 305 305 303 301 302 306 307 309 310 309 307 308 311 309 308 307 306 310 313 316 314 312 314 317 320 320
Height
5878 5878 5877 5876 5874 5875 5876 5876 5874 5873 5872 5871 5869 5869 5868 5867 5868 5869 5867 5865 5866 5866 5866 5866 5866 5867 5868 5868 5869 5870 5871 5872 5873 5874 5875 5875 5876 5877 5878 5879 5880 5881 5882 5883 5884 5885 5885 5886 5886
5881 5880 5879 5878 5877 5878 5878 5877 5876 5875 5874 5872 5871 5870 5869 5868 5868 5868 5867 5867 5867 5867 5867 5867 5867 5868 5868 5869 5870 5871 5872 5873 5874 5875 5876 5877 5877 5878 5879 5880 5881 5882 5883 5884 5885 5886 5886 5887 5887
5883 5882 5881 5881 5881 5882 5881 5879 5878 5876 5875 5874 5873 5872 5871 5870 5870 5869 5868 5868 5868 5867 5867 5867 5868 5868 5869 5870 5871 5872 5873 5874 5875 5876 5877 5878 5878 5879 5880 5881 5882 5883 5884 5885 5886 5886 5887 5887 5888
5885 5884 5883 5885 5885 5884 5883 5881 5880 5878 5877 5876 5875 5874 5872 5871 5871 5870 5869 5869 5868 5868 5868 5867 5868 5869 5870 5871 5872 5873 5874 5875 5876 5878 5878 5879 5880 5880 5881 5882 5883 5884 5885 5885 5886 5887 5887 5888 5888
5885 5886 5887 5888 5887 5886 5885 5883 5881 5880 5879 5878 5877 5875 5874 5873 5872 5871 5870 5870 5870 5869 5868 5867 5868 5869 5871 5872 5873 5875 5875 5876 5878 5879 5880 5880 5881 5881 5882 5883 5884 5885 5885 5886 5886 5887 5888 5888 5888
5887 5889 5891 5890 5890 5889 5887 5885 5883 5882 5880 5879 5878 5877 5876 5875 5874 5873 5872 5871 5871 5870 5870 5869 5869 5870 5872 5873 5874 5876 5877 5878 5879 5880 5881 5881 5882 5882 5883 5884 5885 5885 5886 5886 5887 5887 5888 5888 5888
5892 5892 5893 5893 5892 5890 5889 5887 5886 5884 5883 5881 5880 5879 5878 5876 5876 5875 5874 5873 5873 5872 5871 5871 5871 5872 5873 5874 5875 5877 5878 5879 5880 5881 5882 5882 5883 5883 5884 5885 5885 5886 5886 5887 5888 5888 5888 5888 5888
5894 5895 5896 5896 5894 5893 5891 5889 5888 5886 5885 5884 5882 5881 5880 5879 5878 5876 5875 5875 5874 5874 5873 5873 5872 5873 5874 5875 5877 5878 5879 5880 5881 5882 5883 5883 5884 5884 5885 5885 5886 5886 5887 5887 5888 5888 5888 5888 5888
5898 5899 5899 5899 5897 5895 5894 5892 5891 5889 5887 5886 5885 5883 5882 5881 5879 5878 5877 5877 5876 5876 5875 5874 5873 5874 5875 5877 5878 5880 5881 5881 5882 5883 5884 5884 5885 5885 5886 5886 5887 5887 5887 5887 5888 5888 5888 5887 5887
5902 5902 5902 5901 5899 5898 5896 5895 5893 5892 5890 5889 5887 5886 5884 5883 5882 5881 5880 5879 5878 5878 5877 5876 5876 5876 5878 5879 5880 5881 5882 5883 5884 5884 5885 5885 5886 5886 5887 5887 5888 5888 5888 5888 5888 5888 5887 5887 5886
5905 5904 5904 5903 5902 5900 5899 5897 5896 5895 5893 5891 5890 5888 5887 5886 5885 5884 5882 5881 5881 5881 5880 5880 5879 5880 5881 5881 5882 5883 5884 5885 5885 5886 5886 5887 5887 5887 5888 5888 5889 5889 5889 5889 5889 5888 5888 5886 5885
5907 5906 5906 5905 5904 5903 5901 5900 5899 5897 5896 5894 5892 5891 5889 5888 5887 5886 5885 5884 5884 5884 5883 5883 5883 5883 5883 5884 5884 5885 5886 5886 5887 5887 5887 5888 5888 5888 5888 5889 5889 5890 5890 5890 5889 5889 5888 5887 5886
5909 5909 5908 5907 5906 5905 5904 5903 5901 5900 5898 5896 5895 5894 5892 5891 5890 5889 5888 5887 5887 5886 5886 5886 5886 5886 5886 5886 5886 5887 5887 5888 5888 5888 5888 5889 5889 5889 5889 5890 5890 5890 5890 5890 5890 5889 5888 5888 5887
5911 5910 5910 5909 5908 5907 5906 5905 5904 5903 5901 5899 5898 5896 5895 5894 5892 5891 5891 5890 5890 5889 5889 5889 5889 5888 5888 5889 5889 5889 5889 5889 5889 5889 5890 5890 5890 5890 5890 5891 5891 5891 5891 5890 5890 5890 5889 5889 5888
5912 5911 5911 5912 5911 5910 5909 5908 5906 5905 5903 5902 5900 5899 5898 5897 5895 5894 5894 5893 5892 5892 5892 5891 5891 5891 5891 5891 5891 5891 5891 5891 5891 5891 5891 5891 5891 5891 5892 5891 5891 5891 5891 5891 5890 5890 5890 5889 5889
5913 5913 5914 5914 5913 5912 5912 5911 5909 5907 5906 5904 5903 5902 5901 5900 5898 5897 5896 5896 5895 5895 5894 5894 5894 5894 5894 5894 5893 5893 5893 5892 5893 5892 5892 5892 5892 5892 5892 5892 5892 5892 5892 5892 5891 5890 5890 5890 5889
5915 5916 5916 5916 5916 5914 5914 5912 5911 5910 5908 5907 5905 5904 5903 5902 5901 5900 5899 5898 5897 5897 5897 5896 5896 5896 5896 5896 5895 5895 5895 5894 5894 5894 5893 5893 5893 5893 5894 5894 5893 5893 5893 5892 5892 5891 5891 5890 5890
5916 5918 5919 5919 5917 5916 5915 5914 5913 5912 5910 5909 5907 5906 5905 5904 5903 5902 5901 5900 5900 5899 5899 5898 5898 5898 5898 5898 5897 5897 5896 5896 5895 5895 5895 5894 5894 5894 5895 5894 5894 5894 5894 5893 5893 5893 5892 5891 5890
5916 5918 5920 5920 5918 5918 5917 5916 5915 5913 5912 5911 5909 5908 5907 5906 5905 5905 5904 5903 5902 5901 5901 5900 5900 5900 5900 5899 5899 5899 5898 5897 5897 5897 5896 5896 5895 5895 5895 5895 5895 5895 5895 5894 5894 5894 5893 5892 5891
5916 5918 5919 5920 5919 5918 5917 5917 5916 5915 5914 5913 5911 5910 5909 5908 5907 5906 5906 5905 5904 5903 5903 5902 5902 5901 5901 5901 5900 5900 5900 5899 5899 5898 5897 5897 5896 5896 5896 5896 5896 5896 5896 5895 5895 5894 5894 5893 5892
5917 5918 5918 5920 5919 5917 5917 5917 5916 5916 5915 5914 5913 5911 5910 5909 5908 5908 5907 5906 5906 5905 5905 5904 5904 5903 5903 5902 5902 5901 5901 5900 5900 5899 5898 5898 5897 5897 5897 5897 5897 5897 5896 5896 5895 5895 5894 5893 5892
5916 5917 5918 5918 5919 5918 5917 5916 5914 5916 5915 5915 5914 5913 5911 5910 5909 5909 5908 5907 5907 5906 5906 5905 5905 5904 5904 5903 5903 5902 5902 5902 5901 5900 5900 5899 5898 5898 5898 5897 5897 5897 5897 5896 5896 5895 5894 5893 5892
5915 5916 5916 5917 5917 5917 5917 5917 5917 5916 5915 5915 5915 5914 5912 5911 5910 5909 5909 5908 5908 5907 5907 5906 5906 5905 5905 5904 5904 5904 5903 5902 5902 5901 5900 5900 5899 5899 5898 5898 5898 5898 5897 5897 5896 5896 5895 5894 5892
5913 5915 5915 5916 5916 5917 5918 5918 5917 5916 5916 5916 5915 5914 5913 5912 5911 5910 5909 5909 5908 5908 5907 5907 5907 5906 5905 5905 5904 5904 5904 5903 5903 5902 5901 5901 5900 5900 5899 5899 5899 5898 5898 5897 5897 5896 5895 5894 5892
5911 5913 5915 5915 5915 5916 5918 5918 5917 5916 5916 5915 5914 5914 5913 5912 5911 5910 5910 5909 5908 5908 5907 5907 5907 5906 5906 5905 5905 5904 5904 5903 5903 5902 5902 5901 5901 5900 5899 5899 5899 5898 5898 5897 5896 5896 5895 5893 5892
5908 5911 5913 5914 5915 5916 5917 5916 5916 5916 5915 5915 5914 5914 5913 5912 5911 5910 5909 5909 5908 5908 5908 5907 5906 5905 5905 5905 5905 5905 5904 5904 5903 5903 5902 5902 5901 5900 5900 5899 5899 5898 5898 5897 5896 5895 5894 5893 5892
5905 5907 5911 5913 5913 5914 5915 5915 5914 5914 5914 5914 5913 5913 5912 5911 5910 5909 5908 5908 5908 5907 5907 5907 5906 5905 5905 5905 5905 5904 5904 5903 5903 5902 5902 5901 5901 5900 5899 5899 5898 5898 5897 5897 5896 5895 5894 5892 5891
5902 5904 5908 5909 5910 5911 5912 5912 5912 5911 5911 5912 5912 5911 5911 5910 5909 5908 5906 5906 5907 5906 5906 5906 5906 5906 5905 5905 5904 5904 5903 5902 5902 5902 5901 5901 5900 5899 5899 5898 5898 5897 5896 5896 5895 5894 5892 5891 5890
5898 5901 5902 5904 5906 5908 5909 5912 5910 5910 5910 5909 5910 5910 5908 5908 5908 5907 5905 5905 5906 5906 5905 5905 5905 5905 5904 5904 5903 5902 5902 5901 5901 5901 5900 5899 5899 5898 5898 5897 5897 5896 5895 5894 5893 5892 5891 5890 5888
5894 5896 5899 5902 5903 5904 5905 5908 5906 5907 5907 5907 5907 5907 5906 5906 5906 5905 5904 5904 5904 5904 5904 5904 5904 5903 5903 5902 5902 5901 5901 5900 5900 5899 5898 5898 5897 5897 5896 5896 5895 5894 5893 5892 5891 5890 5889 5888 5886